Location: Bennemühlen
(52.5740°N, 9.7135°E)
Time: 08:59:57
(UTC+00:00)

ISS - Pass Details

Date: 22 January 2026
Orbit: 413 x 429 km, 51.6° (Epoch: 11 February)

Event Time Altitude Azimuth Distance (km) Brightness Sun altitude
Rises 16:49:17 0° 263° (W) 2,359 1.9 -9.1°
Reaches altitude 10° 16:51:22 10° 262° (W) 1,499 0.6 -9.4°
Maximum altitude 16:54:44 76° 177° (S) 437 -3.7 -9.9°
Enters shadow 16:57:34 14° 92° (E) 1,290 -1.9 -10.3°
